Tracking 32110 objects as of 7-Nov-2025
HD Live streaming from Space Station
objects crossing your sky now

CHINASAT 3B

Track CHINASAT 3B now!
CHINASAT 3B is classified as:


NORAD ID: 64062
Int'l Code: 2025-106A
Perigee: 35,756.4 km
Apogee: 35,831.7 km
Inclination: 0.0 °
Period: 1,436.1 minutes
Semi major axis: 42165 km
RCS: Unknown
Launch date: May 20, 2025
Source: People's Republic of China (PRC)
Launch site: Wenchang Satellite Launch Center (WSC)
Your satellite tracking list
Your tracking list is empty




NASA's NSSDC Master Catalog

Two Line Element Set (TLE):
1 64062U 25106A   25310.85213120 -.00000037  00000-0  00000+0 0  9995
2 64062   0.0341  37.2263 0008926 191.9271 291.2291  1.00270724  1837
Source of the keplerian elements: AFSPC